Location: Lawrence Hall of Science
(37.8785°N, 122.2415°W)
Time: 09:24:53
(UTC-07:00)

ARGOS - Visible Passes

Search period start: 16 April 2014 00:00
Search period end: 26 April 2014 00:00
Orbit: 821 x 835 km, 98.8° (Epoch: 16 April)

Date Brightness Start Highest point End Pass type
(mag) Time Alt. Az. Time Alt. Az. Time Alt. Az.
16 Apr 5.1 21:02:32 11° ENE 21:03:34 12° ENE 21:05:21 10° NE visible
16 Apr 3.5 22:44:03 60° NNW 22:44:03 60° NNW 22:48:25 10° NNW visible
17 Apr 3.4 22:25:20 57° NE 22:25:20 57° NE 22:29:59 10° N visible
18 Apr 5.7 00:06:51 13° WNW 00:06:51 13° WNW 00:08:16 10° WNW visible
18 Apr 3.7 22:06:37 42° ENE 22:06:37 42° ENE 22:11:24 10° N visible
18 Apr 5.2 23:48:08 20° WNW 23:48:08 20° WNW 23:50:53 10° NW visible
19 Apr 4.2 21:47:54 29° ENE 21:48:05 29° ENE 21:52:41 10° N visible
19 Apr 4.7 23:29:26 30° WNW 23:29:26 30° WNW 23:33:02 10° NNW visible
20 Apr 4.6 21:29:11 20° ENE 21:29:53 20° ENE 21:33:44 10° NNE visible
20 Apr 4.1 23:10:43 44° WNW 23:10:43 44° WNW 23:14:57 10° NNW visible
21 Apr 5.0 21:10:29 13° ENE 21:11:44 14° ENE 21:14:25 10° NNE visible
21 Apr 3.4 22:52:00 64° NW 22:52:00 64° NW 22:56:42 10° NNW visible
22 Apr 3.2 22:33:17 71° NE 22:33:17 71° NE 22:38:19 10° N visible
23 Apr 5.7 00:14:48 12° WNW 00:14:48 12° WNW 00:15:45 10° WNW visible
23 Apr 3.4 22:14:35 50° ENE 22:14:35 50° ENE 22:19:48 10° N visible
23 Apr 5.3 23:56:06 18° WNW 23:56:06 18° WNW 23:58:48 10° NW visible
24 Apr 3.9 21:55:52 34° ENE 21:56:18 34° ENE 22:01:08 10° N visible
24 Apr 4.8 23:37:23 27° W 23:37:23 27° W 23:41:07 10° NW visible
25 Apr 4.4 21:37:09 23° E 21:38:05 24° ENE 21:42:19 10° NNE visible
25 Apr 4.2 23:18:41 40° W 23:18:41 40° W 23:23:08 10° NNW visible
